User: anonymous   Login
Location: College Park
(38.9810°N, 76.9370°W)
Time: 10:13:35
(UTC-04:00)
Language:

Tiangong 2 - Orbit

View from above orbital plane
View from above orbital plane
View from above satellite
View from above satellite

Ground track
Ground track

The orbit data is extracted from the following two-line orbital elements,

1 41765U 16057A   18199.13646991  .00002692  00000-0  38277-4 0  9999
2 41765  42.7839 156.3016 0005651 121.2225  55.6321 15.59053772104856
Epoch (UTC): 18 July 2018 03:16:31
Eccentricity: 0.0005651
inclination: 42.7839°
perigee height: 386 km
apogee height: 394 km
right ascension of ascending node: 156.3016°
argument of perigee: 121.2225°
revolutions per day: 15.59053772
mean anomaly at epoch: 55.6321°
orbit number at epoch: 10485

The dashed part of the orbit path shows where the satellite is in the earth's shadow,  

DLR